User: anonymous
Location: Unspecified
(0.0000°N, 0.0000°E)
Time: 11:37:28
(UTC+02:00)
Language:

Delta 2 Rocket - Orbit

View from above orbital plane
View from above orbital plane
View from above satellite
View from above satellite

Ground track
Ground track

The orbit data is extracted from the following two-line orbital elements,

1 20453U 90008B   14110.46768983  .00015404  00000-0  99421-3 0  9531
2 20453 035.6261 129.0083 0327131 348.5764 010.7658 14.72757752277264
Epoch (UTC): 20 April 2014 11:13:28
Eccentricity: 0.0327131
inclination: 35.6261°
perigee height: 422 km
apogee height: 882 km
right ascension of ascending node: 129.0083°
argument of perigee: 348.5764°
revolutions per day: 14.72757752
mean anomaly at epoch: 10.7658°
orbit number at epoch: 27726

The dashed part of the orbit path shows where the satellite is in the earth's shadow,  

DLR